TimeCST,TemperatureF,Dew PointF,Humidity,Sea Level PressureIn,VisibilityMPH,Wind Direction,Wind SpeedMPH,Gust SpeedMPH,PrecipitationIn,Events,Conditions,WindDirDegrees,DateUTC
12:14 AM,8.6,5.0,85,29.93,10.0,NNE,4.6,-,N/A,Snow,Light Snow,20,2012-12-29 06:14:00
12:33 AM,8.6,5.0,85,29.92,10.0,North,5.8,-,N/A,Snow,Light Snow,10,2012-12-29 06:33:00
12:53 AM,8.6,3.2,79,29.92,10.0,North,4.6,-,N/A,Snow,Light Snow,360,2012-12-29 06:53:00
1:14 AM,10.4,5.0,79,29.92,10.0,North,4.6,-,N/A,,Overcast,350,2012-12-29 07:14:00
1:33 AM,6.8,3.2,85,29.92,10.0,North,5.8,-,N/A,,Overcast,350,2012-12-29 07:33:00
1:54 AM,8.6,3.2,79,29.91,10.0,NNE,4.6,-,N/A,Snow,Light Snow,20,2012-12-29 07:54:00
2:13 AM,8.6,5.0,85,29.91,10.0,North,6.9,-,N/A,,Overcast,360,2012-12-29 08:13:00
2:34 AM,10.4,6.8,85,29.91,10.0,North,5.8,-,N/A,,Overcast,10,2012-12-29 08:34:00
2:54 AM,10.4,6.8,85,29.90,10.0,NNE,6.9,-,N/A,Snow,Light Snow,20,2012-12-29 08:54:00
3:13 AM,10.4,6.8,85,29.91,10.0,North,4.6,-,N/A,Snow,Light Snow,360,2012-12-29 09:13:00
3:34 AM,10.4,6.8,85,29.91,10.0,NNE,4.6,-,N/A,Snow,Light Snow,20,2012-12-29 09:34:00
3:54 AM,10.4,6.8,85,29.91,1.5,North,4.6,-,N/A,Snow,Light Snow,350,2012-12-29 09:54:00
4:13 AM,10.4,6.8,85,29.90,1.8,North,4.6,-,N/A,Snow,Light Snow,360,2012-12-29 10:13:00
4:34 AM,12.2,8.6,85,29.90,4.0,North,4.6,-,N/A,Snow,Light Snow,10,2012-12-29 10:34:00
4:54 AM,12.2,8.6,85,29.90,4.0,North,3.5,-,N/A,Snow,Light Snow,350,2012-12-29 10:54:00
5:13 AM,12.2,8.6,85,29.90,2.0,North,3.5,-,N/A,Snow,Light Snow,360,2012-12-29 11:13:00
5:33 AM,12.2,8.6,85,29.89,1.8,NNE,4.6,-,N/A,Snow,Light Snow,20,2012-12-29 11:33:00
5:54 AM,12.2,8.6,85,29.90,3.0,North,4.6,-,N/A,Snow,Light Snow,10,2012-12-29 11:54:00
6:14 AM,14.0,8.6,79,29.90,3.0,NNE,3.5,-,N/A,Snow,Light Snow,20,2012-12-29 12:14:00
6:34 AM,14.0,10.4,86,29.89,3.0,North,3.5,-,N/A,Snow,Light Snow,360,2012-12-29 12:34:00
6:53 AM,14.0,10.4,86,29.90,2.0,North,3.5,-,N/A,Snow,Light Snow,360,2012-12-29 12:53:00
7:14 AM,15.8,10.4,79,29.89,1.8,Calm,Calm,-,N/A,Snow,Light Snow,0,2012-12-29 13:14:00
7:33 AM,15.8,10.4,79,29.89,2.5,North,3.5,-,N/A,Snow,Light Snow,360,2012-12-29 13:33:00
7:54 AM,15.8,10.4,79,29.89,1.5,North,3.5,-,N/A,Snow,Light Snow,350,2012-12-29 13:54:00
8:14 AM,15.8,10.4,79,29.89,1.0,Calm,Calm,-,0.01,Snow,Snow,0,2012-12-29 14:14:00
8:34 AM,15.8,12.2,86,29.89,1.2,Calm,Calm,-,0.01,Snow,Light Snow,0,2012-12-29 14:34:00
8:53 AM,15.8,12.2,86,29.89,2.5,Calm,Calm,-,0.02,Snow,Light Snow,0,2012-12-29 14:53:00
9:14 AM,15.8,12.2,86,29.90,7.0,NNW,3.5,-,N/A,Snow,Light Snow,340,2012-12-29 15:14:00
9:33 AM,15.8,12.2,86,29.90,4.0,North,3.5,-,N/A,Snow,Light Snow,350,2012-12-29 15:33:00
9:53 AM,17.6,12.2,79,29.90,3.0,North,3.5,-,N/A,Snow,Light Snow,360,2012-12-29 15:53:00
10:13 AM,17.6,12.2,79,29.90,4.0,Calm,Calm,-,N/A,Snow,Light Snow,0,2012-12-29 16:13:00
10:34 AM,17.6,12.2,79,29.90,5.0,Calm,Calm,-,N/A,Snow,Light Snow,0,2012-12-29 16:34:00
10:54 AM,17.6,12.2,79,29.90,4.0,Calm,Calm,-,N/A,Snow,Light Snow,0,2012-12-29 16:54:00
11:13 AM,17.6,14.0,86,29.89,5.0,Calm,Calm,-,N/A,Snow,Light Snow,0,2012-12-29 17:13:00
11:34 AM,19.4,14.0,80,29.89,5.0,Calm,Calm,-,N/A,Snow,Light Snow,0,2012-12-29 17:34:00
11:54 AM,19.4,14.0,80,29.88,3.0,Calm,Calm,-,N/A,Snow,Light Snow,0,2012-12-29 17:54:00
12:13 PM,19.4,14.0,80,29.88,3.0,Calm,Calm,-,N/A,Snow,Light Snow,0,2012-12-29 18:13:00
12:33 PM,19.4,14.0,80,29.87,3.0,Calm,Calm,-,N/A,Snow,Light Snow,0,2012-12-29 18:33:00
12:53 PM,19.4,14.0,80,29.87,4.0,Calm,Calm,-,N/A,Snow,Light Snow,0,2012-12-29 18:53:00
1:14 PM,19.4,14.0,80,29.86,4.0,Calm,Calm,-,N/A,Snow,Light Snow,0,2012-12-29 19:14:00
1:33 PM,21.2,14.0,74,29.86,4.0,Calm,Calm,-,N/A,Snow,Light Snow,0,2012-12-29 19:33:00
1:54 PM,19.4,12.2,74,29.86,7.0,Calm,Calm,-,N/A,Snow,Light Snow,0,2012-12-29 19:54:00
2:13 PM,19.4,14.0,80,29.86,4.0,Calm,Calm,-,N/A,Snow,Light Snow,0,2012-12-29 20:13:00
2:33 PM,19.4,14.0,80,29.86,4.0,Calm,Calm,-,N/A,Snow,Light Snow,0,2012-12-29 20:33:00
2:54 PM,19.4,14.0,80,29.86,3.0,Calm,Calm,-,N/A,Snow,Light Snow,0,2012-12-29 20:54:00
3:14 PM,19.4,14.0,80,29.87,3.0,SW,3.5,-,N/A,Snow,Light Snow,230,2012-12-29 21:14:00
3:33 PM,19.4,14.0,80,29.87,2.0,Calm,Calm,-,N/A,Snow,Light Snow,0,2012-12-29 21:33:00
3:54 PM,19.4,14.0,80,29.87,3.0,Calm,Calm,-,N/A,Snow,Light Snow,0,2012-12-29 21:54:00
4:14 PM,19.4,14.0,80,29.88,4.0,West,3.5,-,N/A,Snow,Light Snow,260,2012-12-29 22:14:00
4:33 PM,17.6,12.2,79,29.88,4.0,West,6.9,-,N/A,Snow,Light Snow,270,2012-12-29 22:33:00
4:54 PM,17.6,12.2,79,29.88,4.0,West,4.6,-,N/A,Snow,Light Snow,280,2012-12-29 22:54:00
5:13 PM,15.8,10.4,79,29.89,4.0,WNW,5.8,-,N/A,Snow,Light Snow,300,2012-12-29 23:13:00
5:34 PM,15.8,10.4,79,29.89,4.0,WNW,4.6,-,N/A,Snow,Light Snow,300,2012-12-29 23:34:00
5:53 PM,15.8,10.4,79,29.89,5.0,WNW,3.5,-,N/A,Snow,Light Snow,290,2012-12-29 23:53:00
6:14 PM,15.8,10.4,79,29.89,4.0,West,3.5,-,N/A,Snow,Light Snow,280,2012-12-30 00:14:00
6:34 PM,15.8,10.4,79,29.90,3.0,Calm,Calm,-,N/A,Snow,Light Snow,0,2012-12-30 00:34:00
6:53 PM,15.8,10.4,79,29.90,3.0,West,4.6,-,N/A,Snow,Light Snow,270,2012-12-30 00:53:00
7:13 PM,15.8,8.6,73,29.90,4.0,WNW,4.6,-,N/A,Snow,Light Snow,290,2012-12-30 01:13:00
7:34 PM,14.0,8.6,79,29.91,5.0,WNW,3.5,-,N/A,Snow,Light Snow,290,2012-12-30 01:34:00
7:53 PM,14.0,8.6,79,29.91,7.0,WNW,4.6,-,N/A,Snow,Light Snow,290,2012-12-30 01:53:00
8:13 PM,14.0,8.6,79,29.91,4.0,Calm,Calm,-,N/A,Snow,Light Snow,0,2012-12-30 02:13:00
8:53 PM,12.2,6.8,79,29.91,5.0,Calm,Calm,-,N/A,Snow,Light Snow,0,2012-12-30 02:53:00
9:14 PM,12.2,6.8,79,29.91,7.0,NW,4.6,-,N/A,Snow,Light Snow,310,2012-12-30 03:14:00
9:33 PM,12.2,6.8,79,29.91,7.0,Calm,Calm,-,N/A,Snow,Light Snow,0,2012-12-30 03:33:00
9:54 PM,12.2,6.8,79,29.91,10.0,NW,3.5,-,N/A,Snow,Light Snow,310,2012-12-30 03:54:00
10:13 PM,10.4,6.8,85,29.92,10.0,NW,4.6,-,N/A,Snow,Light Snow,310,2012-12-30 04:13:00
10:34 PM,10.4,6.8,85,29.93,10.0,WNW,4.6,-,N/A,Snow,Light Snow,290,2012-12-30 04:34:00
10:53 PM,10.4,6.8,85,29.93,7.0,WNW,3.5,-,N/A,Snow,Light Snow,290,2012-12-30 04:53:00
11:14 PM,10.4,6.8,85,29.93,7.0,West,3.5,-,N/A,Snow,Light Snow,270,2012-12-30 05:14:00
11:34 PM,10.4,5.0,79,29.93,10.0,WNW,5.8,-,N/A,Snow,Light Snow,290,2012-12-30 05:34:00
11:53 PM,10.4,5.0,79,29.93,10.0,WNW,5.8,-,N/A,Snow,Light Snow,300,2012-12-30 05:53:00